Time,TemperatureF,DewpointF,PressureIn,WindDirection,WindDirectionDegrees,WindSpeedMPH,WindSpeedGustMPH,Humidity,HourlyPrecipIn,Conditions,Clouds,dailyrainin,SoftwareType,DateUTC
2013-05-10 00:11:00,62.9,60.0,30.05,South,180,0.0,-999.0,90,-99.99,,,0.00,weatherlink.com 1.10,2013-05-10 04:11:00,
2013-05-10 00:39:00,62.9,60.0,30.06,South,180,0.0,-999.0,90,-99.99,,,0.00,weatherlink.com 1.10,2013-05-10 04:39:00,
2013-05-10 00:41:00,62.3,59.0,30.06,South,180,0.0,-999.0,90,-99.99,,,0.00,weatherlink.com 1.10,2013-05-10 04:41:00,
2013-05-10 00:56:00,62.1,59.0,30.06,South,180,0.0,-999.0,90,-99.99,,,0.00,weatherlink.com 1.10,2013-05-10 04:56:00,
2013-05-10 01:11:00,61.9,59.0,30.06,South,180,0.0,-999.0,91,-99.99,,,0.00,weatherlink.com 1.10,2013-05-10 05:11:00,
2013-05-10 01:39:00,61.9,59.0,30.06,South,180,0.0,-999.0,91,-99.99,,,0.00,weatherlink.com 1.10,2013-05-10 05:39:00,
2013-05-10 01:56:00,61.1,59.0,30.05,South,180,0.0,-999.0,93,-99.99,,,0.00,weatherlink.com 1.10,2013-05-10 05:56:00,
2013-05-10 02:11:00,60.9,59.0,30.05,South,180,0.0,-999.0,93,-99.99,,,0.00,weatherlink.com 1.10,2013-05-10 06:11:00,
2013-05-10 02:39:00,60.9,59.0,30.05,South,180,0.0,-999.0,92,-99.99,,,0.00,weatherlink.com 1.10,2013-05-10 06:39:00,
2013-05-10 02:56:00,60.2,58.0,30.04,South,180,0.0,-999.0,93,-99.99,,,0.00,weatherlink.com 1.10,2013-05-10 06:56:00,
2013-05-10 03:11:00,60.0,58.0,30.05,South,180,0.0,-999.0,94,-99.99,,,0.00,weatherlink.com 1.10,2013-05-10 07:11:00,
2013-05-10 03:39:00,60.0,58.0,30.05,South,180,0.0,-999.0,94,-99.99,,,0.00,weatherlink.com 1.10,2013-05-10 07:39:00,
2013-05-10 03:56:00,59.4,58.0,30.05,South,180,0.0,-999.0,94,-99.99,,,0.00,weatherlink.com 1.10,2013-05-10 07:56:00,
2013-05-10 04:11:00,59.1,57.0,30.05,South,180,0.0,-999.0,94,-99.99,,,0.00,weatherlink.com 1.10,2013-05-10 08:11:00,
2013-05-10 04:39:00,59.0,57.0,30.05,South,180,0.0,-999.0,94,-99.99,,,0.00,weatherlink.com 1.10,2013-05-10 08:39:00,
2013-05-10 04:56:00,58.3,57.0,30.04,South,180,0.0,-999.0,94,-99.99,,,0.00,weatherlink.com 1.10,2013-05-10 08:56:00,
2013-05-10 05:11:00,58.1,56.0,30.05,South,180,0.0,-999.0,94,-99.99,,,0.00,weatherlink.com 1.10,2013-05-10 09:11:00,
2013-05-10 05:39:00,58.0,56.0,30.05,South,180,0.0,-999.0,94,-99.99,,,0.00,weatherlink.com 1.10,2013-05-10 09:39:00,
2013-05-10 05:56:00,57.3,56.0,30.04,South,180,0.0,-999.0,95,-99.99,,,0.00,weatherlink.com 1.10,2013-05-10 09:56:00,
2013-05-10 06:11:00,57.1,56.0,30.05,South,180,0.0,-999.0,95,-99.99,,,0.00,weatherlink.com 1.10,2013-05-10 10:11:00,
2013-05-10 06:39:00,57.1,56.0,30.05,South,180,0.0,-999.0,95,-99.99,,,0.00,weatherlink.com 1.10,2013-05-10 10:39:00,
2013-05-10 06:56:00,56.8,55.0,30.05,South,180,0.0,-999.0,95,-99.99,,,0.00,weatherlink.com 1.10,2013-05-10 10:56:00,
2013-05-10 07:11:00,57.1,56.0,30.05,South,180,0.0,-999.0,96,-99.99,,,0.00,weatherlink.com 1.10,2013-05-10 11:11:00,
2013-05-10 07:39:00,57.2,56.0,30.05,South,180,0.0,-999.0,96,-99.99,,,0.00,weatherlink.com 1.10,2013-05-10 11:39:00,
2013-05-10 07:56:00,58.4,58.0,30.05,South,180,0.0,-999.0,97,-99.99,,,0.00,weatherlink.com 1.10,2013-05-10 11:56:00,
2013-05-10 08:11:00,59.4,59.0,30.06,South,180,0.0,-999.0,97,-99.99,,,0.00,weatherlink.com 1.10,2013-05-10 12:11:00,
2013-05-10 08:39:00,59.5,59.0,30.05,South,180,0.0,-999.0,97,-99.99,,,0.00,weatherlink.com 1.10,2013-05-10 12:39:00,
2013-05-10 08:56:00,63.0,60.0,30.06,South,180,0.0,-999.0,91,-99.99,,,0.00,weatherlink.com 1.10,2013-05-10 12:56:00,
2013-05-10 09:11:00,64.5,61.0,30.06,South,180,0.0,-999.0,87,-99.99,,,0.00,weatherlink.com 1.10,2013-05-10 13:11:00,
2013-05-10 09:33:00,66.4,62.0,30.05,South,180,0.0,-999.0,86,-99.99,,,0.00,weatherlink.com 1.10,2013-05-10 13:33:00,
2013-05-10 09:41:00,67.4,62.0,30.05,South,180,0.0,-999.0,82,-99.99,,,0.00,weatherlink.com 1.10,2013-05-10 13:41:00,
2013-05-10 09:56:00,68.8,62.0,30.05,South,180,0.0,-999.0,80,-99.99,,,0.00,weatherlink.com 1.10,2013-05-10 13:56:00,
2013-05-10 10:28:00,69.6,62.0,30.05,South,180,0.0,-999.0,78,-99.99,,,0.00,weatherlink.com 1.10,2013-05-10 14:28:00,
2013-05-10 10:41:00,73.8,63.0,30.05,South,180,0.0,-999.0,69,-99.99,,,0.00,weatherlink.com 1.10,2013-05-10 14:41:00,
2013-05-10 10:56:00,75.1,63.0,30.04,South,180,0.0,-999.0,66,-99.99,,,0.00,weatherlink.com 1.10,2013-05-10 14:56:00,
2013-05-10 11:28:00,75.6,63.0,30.04,South,180,1.0,-999.0,64,-99.99,,,0.00,weatherlink.com 1.10,2013-05-10 15:28:00,
2013-05-10 11:41:00,78.1,62.0,30.04,South,170,0.0,-999.0,58,-99.99,,,0.00,weatherlink.com 1.10,2013-05-10 15:41:00,
2013-05-10 11:56:00,78.8,62.0,30.03,ESE,116,0.0,-999.0,57,-99.99,,,0.00,weatherlink.com 1.10,2013-05-10 15:56:00,
2013-05-10 12:28:00,79.2,62.0,30.03,East,93,0.0,-999.0,55,-99.99,,,0.00,weatherlink.com 1.10,2013-05-10 16:28:00,
2013-05-10 12:41:00,80.8,63.0,30.02,East,92,1.0,-999.0,55,-99.99,,,0.00,weatherlink.com 1.10,2013-05-10 16:41:00,
2013-05-10 12:57:00,81.4,63.0,30.02,ENE,63,1.0,-999.0,54,-99.99,,,0.00,weatherlink.com 1.10,2013-05-10 16:57:00,
2013-05-10 13:17:00,81.7,63.0,30.02,East,85,1.0,-999.0,54,-99.99,,,0.00,weatherlink.com 1.10,2013-05-10 17:17:00,
2013-05-10 13:26:00,82.1,63.0,30.01,ENE,74,0.0,-999.0,53,-99.99,,,0.00,weatherlink.com 1.10,2013-05-10 17:26:00,
2013-05-10 13:41:00,82.4,63.0,30.01,ENE,76,1.0,-999.0,53,-99.99,,,0.00,weatherlink.com 1.10,2013-05-10 17:41:00,
2013-05-10 14:13:00,82.5,64.0,30.01,ENE,78,2.0,-999.0,53,-99.99,,,0.00,weatherlink.com 1.10,2013-05-10 18:13:00,
2013-05-10 14:26:00,83.4,63.0,29.99,East,98,0.0,-999.0,50,-99.99,,,0.00,weatherlink.com 1.10,2013-05-10 18:26:00,
2013-05-10 14:41:00,83.7,63.0,29.99,East,90,1.0,-999.0,49,-99.99,,,0.00,weatherlink.com 1.10,2013-05-10 18:41:00,
2013-05-10 15:13:00,84.1,62.0,29.99,ENE,76,2.0,-999.0,48,-99.99,,,0.00,weatherlink.com 1.10,2013-05-10 19:13:00,
2013-05-10 15:27:00,84.1,61.0,29.98,ENE,74,1.0,-999.0,45,-99.99,,,0.00,weatherlink.com 1.10,2013-05-10 19:27:00,
2013-05-10 15:42:00,84.1,61.0,29.98,ENE,78,2.0,-999.0,46,-99.99,,,0.00,weatherlink.com 1.10,2013-05-10 19:42:00,
2013-05-10 16:13:00,84.3,62.0,29.98,East,90,1.0,-999.0,47,-99.99,,,0.00,weatherlink.com 1.10,2013-05-10 20:13:00,
2013-05-10 16:27:00,84.5,61.0,29.96,East,90,0.0,-999.0,46,-99.99,,,0.00,weatherlink.com 1.10,2013-05-10 20:27:00,
2013-05-10 16:42:00,84.8,61.0,29.96,East,84,0.0,-999.0,44,-99.99,,,0.00,weatherlink.com 1.10,2013-05-10 20:42:00,
2013-05-10 17:12:00,84.5,60.0,29.96,East,90,0.0,-999.0,43,-99.99,,,0.00,weatherlink.com 1.10,2013-05-10 21:12:00,
2013-05-10 17:26:00,83.7,61.0,29.95,East,90,0.0,-999.0,47,-99.99,,,0.00,weatherlink.com 1.10,2013-05-10 21:26:00,
2013-05-10 17:41:00,83.7,61.0,29.95,East,90,0.0,-999.0,47,-99.99,,,0.00,weatherlink.com 1.10,2013-05-10 21:41:00,
2013-05-10 18:13:00,83.6,62.0,29.94,East,90,1.0,-999.0,48,-99.99,,,0.00,weatherlink.com 1.10,2013-05-10 22:13:00,
2013-05-10 18:27:00,82.4,62.0,29.94,East,90,0.0,-999.0,50,-99.99,,,0.00,weatherlink.com 1.10,2013-05-10 22:27:00,
2013-05-10 18:42:00,82.0,61.0,29.94,East,90,0.0,-999.0,49,-99.99,,,0.00,weatherlink.com 1.10,2013-05-10 22:42:00,
2013-05-10 19:12:00,81.9,61.0,29.94,East,90,0.0,-999.0,49,-99.99,,,0.00,weatherlink.com 1.10,2013-05-10 23:12:00,
2013-05-10 19:26:00,80.4,62.0,29.94,East,90,0.0,-999.0,54,-99.99,,,0.00,weatherlink.com 1.10,2013-05-10 23:26:00,
2013-05-10 19:41:00,79.8,62.0,29.94,East,90,0.0,-999.0,55,-99.99,,,0.00,weatherlink.com 1.10,2013-05-10 23:41:00,
2013-05-10 20:12:00,79.6,62.0,29.94,East,90,0.0,-999.0,56,-99.99,,,0.00,weatherlink.com 1.10,2013-05-11 00:12:00,
2013-05-10 20:26:00,77.2,64.0,29.95,East,90,0.0,-999.0,63,-99.99,,,0.00,weatherlink.com 1.10,2013-05-11 00:26:00,
2013-05-10 20:41:00,76.2,64.0,29.95,East,90,0.0,-999.0,65,-99.99,,,0.00,weatherlink.com 1.10,2013-05-11 00:41:00,
2013-05-10 21:12:00,75.8,64.0,29.95,East,90,0.0,-999.0,66,-99.99,,,0.00,weatherlink.com 1.10,2013-05-11 01:12:00,
2013-05-10 21:26:00,73.7,64.0,29.96,East,90,0.0,-999.0,71,-99.99,,,0.00,weatherlink.com 1.10,2013-05-11 01:26:00,
2013-05-10 21:41:00,73.4,64.0,29.96,East,90,0.0,-999.0,72,-99.99,,,0.00,weatherlink.com 1.10,2013-05-11 01:41:00,
2013-05-10 22:12:00,73.3,64.0,29.96,East,90,0.0,-999.0,72,-99.99,,,0.00,weatherlink.com 1.10,2013-05-11 02:12:00,
2013-05-10 22:26:00,72.4,64.0,29.96,East,90,0.0,-999.0,76,-99.99,,,0.00,weatherlink.com 1.10,2013-05-11 02:26:00,
2013-05-10 22:41:00,71.7,64.0,29.96,East,90,0.0,-999.0,76,-99.99,,,0.00,weatherlink.com 1.10,2013-05-11 02:41:00,
2013-05-10 23:12:00,71.7,63.0,29.96,East,90,0.0,-999.0,75,-99.99,,,0.00,weatherlink.com 1.10,2013-05-11 03:12:00,
2013-05-10 23:26:00,72.7,63.0,29.95,East,90,0.0,-999.0,72,-99.99,,,0.00,weatherlink.com 1.10,2013-05-11 03:26:00,
2013-05-10 23:41:00,72.8,63.0,29.95,East,90,0.0,-999.0,72,-99.99,,,0.00,weatherlink.com 1.10,2013-05-11 03:41:00,